DW7601 San Vito IT current weather conditions

sailwx.info

Wind from 022

Air temperature 6.7° C
Dewpoint 5.0° C

Last reported at 2017-Jan-24 05:51 UTC.
Time now 2017-Jan-24 06:57 UTC

Location: N 39°27' E 009°32'.
View on Google Maps.

See reports from other nearby stations

  
Tides and Currents Weather Stations Pressure Air Temp Water Temp Dewpoint Dewpoint Depression Visibility Wind Speed Wind Dir Waves Ship Positions
date/time (UTC)wind fromknots sea level pressurealtimeterstation pressurevisibilityair tempwater tempwave heightnotes
2017-Jan-24 05:51 022 6.7
2017-Jan-24 05:41 123 6.7
2017-Jan-24 05:31 022 6.7
2017-Jan-24 05:21 347 6.7
2017-Jan-24 05:11 301 6.7
2017-Jan-24 05:01 346 7.2
2017-Jan-24 04:51 068 7.2
2017-Jan-24 04:41 012 7.2
2017-Jan-24 04:31 042 7.2
2017-Jan-24 04:21 035 7.2
2017-Jan-24 04:11 042 7.2
2017-Jan-24 04:01 051 7.8
2017-Jan-24 03:51 307 7.2
2017-Jan-24 03:41 076 7.2
2017-Jan-24 03:31 015 7.2
2017-Jan-24 03:21 035 7.2
2017-Jan-24 03:11 039 7.2
2017-Jan-24 03:01 7.2
2017-Jan-24 02:51 039 7.2
2017-Jan-24 02:41 014 7.2
2017-Jan-24 02:31 044 7.2
2017-Jan-24 02:21 045 7.2
2017-Jan-24 02:11 012 7.2
2017-Jan-24 02:01 087 7.8
2017-Jan-24 01:51 309 7.2
2017-Jan-24 01:41 090 7.2
2017-Jan-24 01:31 057 0 gusting 0 7.2
2017-Jan-24 01:21 057 7.2
2017-Jan-24 01:11 205 6.7
2017-Jan-24 01:01 036 6.7
2017-Jan-24 00:51 022 0 gusting 0 6.7
2017-Jan-24 00:41 352 0 gusting 2 6.7
2017-Jan-24 00:31 013 6.7
2017-Jan-24 00:21 082 6.7
2017-Jan-24 00:11 235 6.7
2017-Jan-24 00:01 352 6.7
2017-Jan-23 23:51 087 6.7
2017-Jan-23 23:41 242 6.7
2017-Jan-23 23:31 227 6.7
2017-Jan-23 23:21 219 6.7
2017-Jan-23 23:11 022 6.7
2017-Jan-23 23:01 202 6.7
2017-Jan-23 22:51 090 6.7
2017-Jan-23 22:41 270 7.2
2017-Jan-23 22:31 352 7.2
2017-Jan-23 22:21 242 7.2
2017-Jan-23 22:11 025 7.2
2017-Jan-23 22:01 068 7.2
2017-Jan-23 21:51 209 7.2
2017-Jan-23 21:41 180 7.2
2017-Jan-23 21:31 112 7.2
2017-Jan-23 21:21 248 7.2
2017-Jan-23 21:11 233 7.2
2017-Jan-23 21:01 158 7.2
2017-Jan-23 20:51 202 7.2
2017-Jan-23 20:41 202 7.2
2017-Jan-23 20:31 202 7.2
2017-Jan-23 20:21 194 7.2
2017-Jan-23 20:11 174 7.2
2017-Jan-23 20:01 180 7.2
2017-Jan-23 19:51 180 7.2
2017-Jan-23 19:41 106 7.8
2017-Jan-23 19:31 150 7.8
2017-Jan-23 19:21 119 7.8
2017-Jan-23 19:11 119 7.8
2017-Jan-23 19:01 098 7.8
2017-Jan-23 18:51 090 7.8
2017-Jan-23 18:41 090 7.8
2017-Jan-23 18:31 090 8.3
2017-Jan-23 18:21 090 8.3
2017-Jan-23 18:11 202 8.3
2017-Jan-23 18:01 202 8.9
2017-Jan-23 17:51 202 8.9
2017-Jan-23 17:41 202 9.4
2017-Jan-23 17:31 202 9.4
2017-Jan-23 17:21 202 10.0
2017-Jan-23 17:11 202 10.6
2017-Jan-23 17:01 202 10.6
2017-Jan-23 16:51 180 11.1
2017-Jan-23 16:41 180 11.7
2017-Jan-23 16:31 136 12.2
2017-Jan-23 16:21 045 12.2
2017-Jan-23 16:11 060 12.8
2017-Jan-23 16:01 060 13.3
2017-Jan-23 15:51 076 13.9
2017-Jan-23 15:41 104 14.4
2017-Jan-23 15:31 090 15.0
2017-Jan-23 15:21 081 0 gusting 0 15.0
2017-Jan-23 15:11 123 0 gusting 2 15.0
2017-Jan-23 15:01 156 1 gusting 4 15.6
2017-Jan-23 14:51 109 0 gusting 2 15.6
2017-Jan-23 14:41 120 1 gusting 1 15.0
2017-Jan-23 14:31 097 1 gusting 2 15.0
2017-Jan-23 14:21 067 1 gusting 2 15.0
2017-Jan-23 14:11 090 1 gusting 2 15.6
2017-Jan-23 14:01 090 1 gusting 4 15.0
2017-Jan-23 13:51 111 0 gusting 4 15.6
2017-Jan-23 13:41 120 0 gusting 2 16.1
2017-Jan-23 13:31 113 0 gusting 2 15.6
2017-Jan-23 13:21 112 14.4
2017-Jan-23 13:11 112 0 gusting 2 14.4
2017-Jan-23 13:01 120 0 gusting 2 14.4
2017-Jan-23 12:51 135 0 gusting 1 15.0
2017-Jan-23 12:41 112 0 gusting 1 15.0
2017-Jan-23 12:31 099 0 gusting 1 15.6
2017-Jan-23 12:21 127 0 gusting 1 15.0
2017-Jan-23 12:11 075 1 gusting 4 15.0
2017-Jan-23 12:01 098 1 gusting 2 15.0
2017-Jan-23 11:51 097 1 gusting 4 15.6
2017-Jan-23 11:41 127 1 gusting 1 15.0
2017-Jan-23 11:31 108 1 gusting 4 15.0
2017-Jan-23 11:21 098 0 gusting 4 15.6
2017-Jan-23 11:11 090 0 gusting 2 15.0
2017-Jan-23 11:01 135 0 gusting 2 15.0
2017-Jan-23 10:51 101 0 gusting 1 14.4
2017-Jan-23 10:41 105 14.4
2017-Jan-23 10:31 209 14.4
2017-Jan-23 10:21 182 14.4
2017-Jan-23 10:11 287 13.3
2017-Jan-23 10:01 270 13.3
2017-Jan-23 09:51 255 12.8
2017-Jan-23 09:41 329 11.7
2017-Jan-23 09:31 197 11.1
2017-Jan-23 09:21 225 10.6
2017-Jan-23 09:11 066 10.0
2017-Jan-23 09:01 006 9.4
2017-Jan-23 08:51 046 8.9
2017-Jan-23 08:41 202 7.8
2017-Jan-23 08:31 173 7.8
2017-Jan-23 08:21 112 7.8
2017-Jan-23 08:11 254 7.8
2017-Jan-23 08:01 067 7.8
2017-Jan-23 07:51 194 7.2
2017-Jan-23 07:41 302 7.2
2017-Jan-23 07:31 158 6.7
2017-Jan-23 07:21 068 6.7
2017-Jan-23 07:11 294 6.7
2017-Jan-23 07:01 202 6.7
2017-Jan-23 06:51 103 6.7
2017-Jan-23 06:41 313 6.7
2017-Jan-23 06:31 6.7
2017-Jan-23 06:21 094 6.7
2017-Jan-23 06:11 349 6.7
2017-Jan-23 06:01 307 6.7
2017-Jan-23 05:51 225 6.7
2017-Jan-23 05:41 181 6.7
2017-Jan-23 05:31 293 7.2
2017-Jan-23 05:21 225 7.2
2017-Jan-23 05:11 010 7.2
2017-Jan-23 05:01 022 6.7
2017-Jan-23 04:51 143 6.7
2017-Jan-23 04:41 225 7.2
2017-Jan-23 04:31 288 7.2
2017-Jan-23 04:21 338 7.2
2017-Jan-23 04:11 213 7.2
2017-Jan-23 04:01 213 7.2
2017-Jan-23 03:51 202 7.2
2017-Jan-23 03:41 236 7.2
2017-Jan-23 03:31 292 7.2
2017-Jan-23 03:21 202 7.8
2017-Jan-23 03:11 248 7.2
2017-Jan-23 03:01 237 7.2
2017-Jan-23 02:51 303 7.2
2017-Jan-23 02:41 275 7.8
2017-Jan-23 02:31 202 7.8
2017-Jan-23 02:21 225 7.8
2017-Jan-23 02:11 202 7.8
2017-Jan-23 02:01 248 7.8
2017-Jan-23 01:51 292 7.8
2017-Jan-23 01:41 315 7.8
2017-Jan-23 01:31 272 8.3
2017-Jan-23 01:21 236 8.3
2017-Jan-23 01:11 202 8.9
2017-Jan-23 01:01 248 8.9
2017-Jan-23 00:51 315 8.9
2017-Jan-23 00:41 302 8.9
2017-Jan-23 00:31 233 9.4
2017-Jan-23 00:21 259 9.4
2017-Jan-23 00:11 202 12.8
2017-Jan-23 00:01 236 12.8
2017-Jan-22 23:51 270 12.8
2017-Jan-22 23:41 202 12.8
2017-Jan-22 23:31 225 12.8
2017-Jan-22 23:21 202 12.8
2017-Jan-22 23:11 202 12.8
2017-Jan-22 23:01 225 12.8
2017-Jan-22 22:51 237 12.8
2017-Jan-22 22:41 236 12.8
2017-Jan-22 22:31 214 12.8
2017-Jan-22 22:21 259 12.8
2017-Jan-22 22:11 270 12.8
2017-Jan-22 22:01 270 12.8
2017-Jan-22 21:51 270 12.8
2017-Jan-22 21:41 270 12.8
2017-Jan-22 21:31 259 12.8
2017-Jan-22 21:21 270 12.8
2017-Jan-22 21:11 214 12.8
2017-Jan-22 21:01 247 12.8
2017-Jan-22 20:51 270 12.8
2017-Jan-22 20:41 225 12.8
2017-Jan-22 20:31 225 12.8
2017-Jan-22 20:21 270 12.8
2017-Jan-22 20:11 270 12.8
2017-Jan-22 20:01 270 12.8
2017-Jan-22 19:51 270 12.8
2017-Jan-22 19:41 259 12.8
2017-Jan-22 19:31 248 12.8
2017-Jan-22 19:21 270 12.8
2017-Jan-22 19:11 270 12.8
2017-Jan-22 19:01 259 12.8
2017-Jan-22 18:51 247 12.8
2017-Jan-22 18:41 270 12.8
2017-Jan-22 18:31 248 12.8
2017-Jan-22 18:21 202 12.8
2017-Jan-22 18:11 239 12.8
2017-Jan-22 18:01 225 12.8
2017-Jan-22 17:51 225 12.8
2017-Jan-22 17:41 202 12.8
2017-Jan-22 17:31 202 12.8
2017-Jan-22 17:21 112 12.8
2017-Jan-22 17:11 060 12.8
2017-Jan-22 17:01 068 0 gusting 1 12.8
2017-Jan-22 16:51 068 0 gusting 2 12.8
2017-Jan-22 16:41 088 1 gusting 4 12.8
2017-Jan-22 16:31 081 12.8
2017-Jan-22 16:21 079 12.8
2017-Jan-22 16:11 079 12.8
2017-Jan-22 16:01 100 1 gusting 4 13.9
2017-Jan-22 15:51 111 1 gusting 4 15.6
2017-Jan-22 15:41 090 0 gusting 4 15.6
2017-Jan-22 15:31 088 1 gusting 4 15.6
2017-Jan-22 15:21 108 2 gusting 5 15.6
2017-Jan-22 15:11 094 2 gusting 5 15.6
2017-Jan-22 15:01 093 2 gusting 6 15.6
2017-Jan-22 14:51 114 4 gusting 6 15.6
2017-Jan-22 14:41 090 2 gusting 1 15.6
2017-Jan-22 14:31 093 2 gusting 6 15.6
2017-Jan-22 14:21 115 4 gusting 6 15.6
2017-Jan-22 14:11 112 4 gusting 6 15.6
2017-Jan-22 14:01 094 4 gusting 6 15.6
2017-Jan-22 13:51 114 4 gusting 6 15.6
2017-Jan-22 13:41 111 4 gusting 6 15.6
2017-Jan-22 13:31 090 4 gusting 6 15.6
2017-Jan-22 13:21 094 4 gusting 8 15.6
2017-Jan-22 13:11 071 4 gusting 6 15.6
2017-Jan-22 13:01 109 4 gusting 8 15.6
2017-Jan-22 12:51 090 4 gusting 10 15.6
2017-Jan-22 12:41 109 5 gusting 10 15.6
2017-Jan-22 12:31 093 4 gusting 8 15.6
2017-Jan-22 12:21 132 4 gusting 8 15.6
2017-Jan-22 12:11 175 2 gusting 6 15.6
2017-Jan-22 12:01 174 4 gusting 6 15.6
2017-Jan-22 11:51 161 5 gusting 6 15.6
2017-Jan-22 11:41 180 4 gusting 7 15.6
2017-Jan-22 11:31 092 3 gusting 10 15.6
2017-Jan-22 11:21 175 4 gusting 5 15.6
2017-Jan-22 11:11 135 4 gusting 10 15.6
2017-Jan-22 11:01 144 2 gusting 6 10.0
2017-Jan-22 10:51 112 3 gusting 7 10.0
2017-Jan-22 10:41 146 4 gusting 8 10.0
2017-Jan-22 10:31 135 3 gusting 8 10.0
2017-Jan-22 10:21 092 4 gusting 6 10.0
2017-Jan-22 10:11 123 4 gusting 6 10.0
2017-Jan-22 10:01 148 4 gusting 11 10.0
2017-Jan-22 09:51 136 4 gusting 11 10.0
2017-Jan-22 09:41 121 2 gusting 7 10.0
2017-Jan-22 09:31 135 2 gusting 6 10.0
2017-Jan-22 09:21 167 2 gusting 6 10.0
2017-Jan-22 09:11 112 4 gusting 6 10.0
2017-Jan-22 09:01 169 2 gusting 5 10.0
2017-Jan-22 08:51 114 3 gusting 6 10.0
2017-Jan-22 08:41 112 1 gusting 2 10.0
2017-Jan-22 08:31 100 1 gusting 6 10.0
2017-Jan-22 08:21 159 2 gusting 10 10.0
2017-Jan-22 08:11 090 0 gusting 6 10.0
2017-Jan-22 08:01 147 10.0
2017-Jan-22 07:51 123 10.0
2017-Jan-22 07:41 090 0 gusting 2 10.0
2017-Jan-22 07:31 090 0 gusting 5 10.0
2017-Jan-22 07:21 101 0 gusting 2 10.0
2017-Jan-22 07:11 113 10.0
2017-Jan-22 07:01 104 10.0
2017-Jan-22 06:51 090 10.0
2017-Jan-22 06:41 082 10.0
2017-Jan-22 06:31 068 0 gusting 1 10.0
2017-Jan-22 06:21 150 10.0
2017-Jan-22 06:11 068 10.0
2017-Jan-22 06:01 068 10.0